Regional Weather Roundup
Issued by NWS Cleveland, OH

Home | Current Version | Previous Version | Graphics & Text | Print | Product List | Glossary On
Versions: 1 2 3 4 5 6 7 8 9 10 11 12 13 14 15 16 17 18 19 20 21 22 23 24 25 26 27 28 29 30 31 32 33 34 35 36 37 38 39 40 41 42 43 44 45 46 47 48 49 50
000
ASUS41 KCLE 301300
RWRCLE
OHIO REGIONAL WEATHER ROUNDUP
NATIONAL WEATHER SERVICE WILMINGTON, OH
900 AM EDT THU JUL 30 2015

NOTE: "FAIR" INDICATES FEW OR NO CLOUDS BELOW 12,000 FEET WITH NO
SIGNIFICANT WEATHER AND/OR OBSTRUCTIONS TO VISIBILITY.

OHZ001>008-015>018-024>027-034-035-043-044-301400-
   NORTHWEST OHIO

CITY           SKY/WX    TMP DP  RH WIND       PRES   REMARKS
DEFIANCE       SUNNY     71  61  70 W7        30.03R
FINDLAY        SUNNY     71  62  73 W7        30.02R
TOLEDO EXPRESS SUNNY     69  60  73 W9        30.00S
TOLEDO EXEC    SUNNY     72  60  66 W10       30.00S
LIMA           SUNNY     71  60  68 NW6       30.04R
$$

OHZ009>014-019>023-028>033-038-089-301400-
   NORTHEAST OHIO

CITY           SKY/WX    TMP DP  RH WIND       PRES   REMARKS
CLE-HOPKINS    MOSUNNY   72  64  76 W8        30.00R
CLE-LAKEFRONT  SUNNY     76  67  73 W12       29.96R
CUY CO. ARPT   MOSUNNY   77  66  69 NW16      29.97S
LORAIN-ELYRIA  SUNNY     71  62  73 VRB6      29.99S
ASHTABULA      MOSUNNY   74  65  73 W8        29.96S
AKRON-CANTON   PTSUNNY   74  62  66 W8        30.00R
WOOSTER        NOT AVBL
MANSFIELD      SUNNY     71  60  68 W6        30.03R
YOUNGSTOWN     PTSUNNY   72  64  76 W6        29.98R
$$

OHZ042-051>053-060>062-070>072-077>081-301400-
  SOUTHWEST OHIO

CITY           SKY/WX    TMP DP  RH WIND       PRES   REMARKS
CINC-COVINGTON MOSUNNY   73  60  63 N12       30.08R
CINC-LUNKEN    SUNNY     75  61  61 N7        30.07R
HAMILTON       SUNNY     73  62  68 NW8       30.08R
DAYTON         NOT AVBL
WRIGHT-PAT AFB NOT AVBL
DAYTON GENERAL SUNNY     71  59  65 N8        30.06R
WILMINGTON     SUNNY     73  61  65 NW9       30.06R
$$

OHZ036-037-039>041-045>050-054>059-063>069-073>076-082>088-301400-
  CENTRAL AND SOUTHEAST OHIO

CITY           SKY/WX    TMP DP  RH WIND       PRES   REMARKS
COLUMBUS       MOSUNNY   73  59  61 NW9       30.02R
OSU AIRPORT    SUNNY     73  61  65 NW9       30.03R
BOLTON FIELD   SUNNY     72  63  73 W6        30.04R
RICKENBACK AFB NOT AVBL
NEWARK         MOSUNNY   73  62  68 VRB5      30.02R
MARION         SUNNY     71  60  68 NW6       30.03R
LANCASTER      MOSUNNY   74  62  66 VRB6      30.03R
ZANESVILLE     MOSUNNY   75  61  61 NW7       30.01R
NEW PHILLY     MOSUNNY   74  62  66 NW5       30.00R
$$


USA.gov is the U.S. government's official web portal to all federal, state and local government web resources and services.